Verbier, Switzerland 16 day weather forecast

Slopes altitude range 1500 m - 3330m

Number of lifts: 89 Pistes: 412km

In some cases the lift and piste totals shown are for the ski domain (e.g. Three Valleys) rather than individual resort (e.g. Courchevel)

Overview

The 16 day weather forecast is fully updated 4 times every day.

    • Thu 17 JAN 2019
    • Thu 17
    • -7C -3C
    • Fri 18 JAN 2019
    • Fri 18
    • -16C -8C
    • Sat 19 JAN 2019
    • Sat 19
    • -14C -6C
    • Sun 20 JAN 2019
    • Sun 20
    • -11C -6C
    • Mon 21 JAN 2019
    • Mon 21
    • -15C -6C
    • Tue 22 JAN 2019
    • Tue 22
    • -16C -6C
    • Wed 23 JAN 2019
    • Wed 23
    • -15C -9C
    • Thu 24 JAN 2019
    • Thu 24
    • -11C -3C
    • Fri 25 JAN 2019
    • Fri 25
    • -13C -5C
    • Sat 26 JAN 2019
    • Sat 26
    • -18C -8C
    • Sun 27 JAN 2019
    • Sun 27
    • -11C -8C
    • Mon 28 JAN 2019
    • Mon 28
    • -10C -7C
    • Tue 29 JAN 2019
    • Tue 29
    • -17C -7C
    • Wed 30 JAN 2019
    • Wed 30
    • -11C -6C
    • Thu 31 JAN 2019
    • Thu 31
    • -16C -11C
    • Fri 01 FEB 2019
    • Fri 01
    • -20C -12C

Date:

Time Type 0°C level Temp Chill Snow Cloud Speed Gust Dir Press
18:00 1154m -3°C -3_6 3cm 100% 6mph 9mph 1015mB
21:00 928m -8°C -8_6 2cm 100% 6mph 9mph 1016mB
0:00 653m -10°C -10_5 2cm 99% 5mph 8mph 1017mB
3:00 294m -12°C -12_3 1cm 94% 3mph 4mph 1018mB
6:00 0m -16°C -16_3 1cm 75% 3mph 4mph 1018mB
9:00 258m -16°C -16_3 0cm 67% 3mph 3mph 1018mB
12:00 848m -8°C -8_5 0cm 79% 5mph 5mph 1017mB
15:00 858m -8°C -8_1 0cm 93% 1mph 2mph 1017mB
18:00 113m -8°C -8_7 0cm 93% 7mph 7mph 1019mB
21:00 214m -13°C -13_8 0cm 94% 8mph 8mph 1020mB
0:00 276m -13°C -13_7 0cm 95% 7mph 8mph 1020mB
3:00 344m -12°C -12_7 0cm 97% 7mph 8mph 1019mB
6:00 140m -13°C -13_7 0cm 95% 7mph 7mph 1018mB
9:00 586m -14°C -14_7 0cm 40% 7mph 8mph 1018mB
12:00 1258m -6°C -6_4 0cm 20% 4mph 6mph 1015mB
15:00 1011m -6°C -6_3 0cm 0% 3mph 4mph 1014mB
18:00 217m -6°C -6_6 0cm 17% 6mph 7mph 1015mB
21:00 533m -12°C -12_5 0cm 96% 5mph 6mph 1016mB
0:00 225m -12°C -12_6 0cm 96% 6mph 7mph 1016mB
3:00 147m -13°C -13_6 0cm 93% 6mph 7mph 1015mB
6:00 401m -13°C -13_5 0cm 94% 5mph 6mph 1016mB
9:00 834m -11°C -11_6 1cm 99% 6mph 8mph 1016mB
12:00 1279m -6°C -6_4 1cm 99% 4mph 5mph 1015mB
15:00 1233m -5°C -5_5 1cm 95% 5mph 6mph 1015mB
18:00 915m -5°C -5_3 1cm 96% 3mph 4mph 1017mB
21:00 372m -11°C -11_3 1cm 93% 3mph 3mph 1019mB
0:00 58m -13°C -13_4 1cm 86% 4mph 4mph 1020mB
3:00 6m -15°C -15_4 0cm 28% 4mph 5mph 1020mB
6:00 0m -15°C -15_5 0cm 14% 5mph 5mph 1021mB
9:00 455m -15°C -15_4 0cm 0% 4mph 5mph 1022mB
12:00 1158m -6°C -6_3 0cm 0% 3mph 3mph 1020mB
15:00 879m -6°C -6_4 0cm 1% 4mph 5mph 1020mB
18:00 122m -6°C -6_4 0cm 26% 4mph 4mph 1021mB
21:00 0m -15°C -15_5 0cm 1% 5mph 6mph 1022mB
0:00 0m -15°C -15_5 0cm 0% 5mph 6mph 1020mB
3:00 0m -15°C -15_5 0cm 0% 5mph 6mph 1018mB
6:00 0m -16°C -16_6 0cm 0% 6mph 6mph 1015mB
9:00 420m -16°C -16_6 0cm 0% 6mph 7mph 1012mB
12:00 1255m -6°C -6_4 0cm 0% 4mph 5mph 1007mB
15:00 1017m -6°C -6_3 0cm 0% 3mph 4mph 1003mB
18:00 81m -6°C -6_7 0cm 19% 7mph 7mph 1004mB
21:00 4m -15°C -15_7 0cm 77% 7mph 7mph 1004mB
0:00 0m -15°C -15_5 0cm 72% 5mph 6mph 1003mB
3:00 0m -15°C -15_3 0cm 98% 3mph 4mph 1002mB
6:00 7m -15°C -15_2 0cm 98% 2mph 3mph 1002mB
9:00 296m -15°C -15_2 1cm 97% 2mph 2mph 1002mB
12:00 699m -9°C -9_4 1cm 96% 4mph 4mph 1000mB
15:00 687m -9°C -9_4 1cm 97% 4mph 6mph 998mB
18:00 155m -9°C -9_4 1cm 96% 4mph 5mph 999mB
21:00 94m -14°C -14_6 0cm 97% 6mph 7mph 999mB
0:00 192m -14°C -14_7 0cm 97% 7mph 8mph 999mB
3:00 297m -13°C -13_8 0cm 87% 8mph 9mph 999mB
6:00 379m -13°C -13_7 0cm 92% 7mph 8mph 1000mB
9:00 961m -11°C -11_7 0cm 98% 7mph 8mph 1001mB
12:00 1543m -3°C -3_1 0cm 96% 1mph 2mph 1000mB
15:00 1309m -4°C -4_3 0cm 85% 3mph 3mph 1002mB
18:00 581m -4°C -4_5 0cm 87% 5mph 5mph 1005mB
21:00 317m -12°C -12_4 0cm 85% 4mph 4mph 1007mB
0:00 266m -12°C -12_5 0cm 64% 5mph 5mph 1009mB
3:00 295m -12°C -12_5 0cm 64% 5mph 6mph 1010mB
6:00 192m -13°C -13_6 0cm 70% 6mph 6mph 1012mB
9:00 764m -13°C -13_5 0cm 10% 5mph 5mph 1014mB
12:00 1295m -5°C -5_1 0cm 6% 1mph 2mph 1013mB
15:00 1123m -5°C -5_4 0cm 18% 4mph 4mph 1014mB
18:00 452m -5°C -5_1 1cm 44% 1mph 2mph 1016mB
21:00 12m -15°C -15_2 0cm 50% 2mph 3mph 1018mB
0:00 0m -17°C -17_3 0cm 32% 3mph 3mph 1019mB
3:00 0m -18°C -18_3 0cm 0% 3mph 3mph 1019mB
6:00 0m -18°C -18_2 0cm 0% 2mph 3mph 1020mB
9:00 325m -18°C -18_2 0cm 0% 2mph 3mph 1019mB
12:00 872m -8°C -8_6 0cm 0% 6mph 7mph 1017mB
15:00 640m -8°C -8_5 0cm 23% 5mph 6mph 1016mB
18:00 0m -8°C -8_1 0cm 43% 1mph 2mph 1018mB
21:00 0m -17°C -17_1 0cm 86% 1mph 1mph 1017mB
0:00 87m -17°C -17_2 0cm 90% 2mph 3mph 1015mB
3:00 266m -13°C -13_4 1cm 95% 4mph 5mph 1013mB
6:00 404m -13°C -13_3 1cm 97% 3mph 4mph 1011mB
9:00 674m -11°C -11_5 1cm 100% 5mph 6mph 1010mB
12:00 857m -8°C -8_6 1cm 99% 6mph 7mph 1007mB
Morning 0.46875mm 0.375 863m -7°C -7_9 4cm 99% 9mph 15mph 999mB
Afternoon 0.4375mm 0.5625 520m -7°C -7_10 4cm 100% 10mph 14mph 996mB
Morning 0.197917mm 0.125 0m -17°C -17_3 2cm 94% 3mph 6mph 1001mB
Afternoon 0.21875mm 0.0625 729m -7°C -7_11 2cm 99% 11mph 15mph 993mB
Morning 0.677083mm 0 594m -9°C -9_10 5cm 100% 10mph 16mph 984mB
Afternoon 0.161458mm 0 1025m -6°C -6_5 1cm 93% 5mph 7mph 988mB
Morning 0.401042mm 0.125 22m -13°C -13_6 3cm 99% 6mph 10mph 998mB
Afternoon 0.0885417mm 0 123m -11°C -11_9 1cm 96% 9mph 11mph 1003mB
Morning 0.09375mm 0 0m -19°C -19_3 1cm 96% 3mph 4mph 1008mB
Afternoon 0.0260417mm 0 56m -12°C -12_6 0cm 65% 6mph 8mph 1005mB
Morning 0.046875mm 0 0m -20°C -20_3 0cm 70% 3mph 3mph 1007mB
Afternoon 0mm 0 239m -11°C -11_3 0cm 28% 3mph 3mph 1005mB

16 day outlook at a glance

Forecast issued: 18/01/2019 00:15:01

Chat

Your comments and questions. In a resort? Let us know what it's like!


Characters left 250

For terms and conditions see Readers Comments on the Cookie and privacy policy page.